TimeCST,TemperatureF,Dew PointF,Humidity,Sea Level PressureIn,VisibilityMPH,Wind Direction,Wind SpeedMPH,Gust SpeedMPH,PrecipitationIn,Events,Conditions,WindDirDegrees,DateUTC
12:15 AM,28.4,26.6,93,29.80,4.0,Calm,Calm,-,N/A,Snow,Light Snow,0,2013-01-28 06:15:00
12:35 AM,28.4,26.6,93,29.80,4.0,Calm,Calm,-,N/A,,Overcast,0,2013-01-28 06:35:00
12:55 AM,28.4,26.6,93,29.79,3.0,Calm,Calm,-,N/A,Snow,Light Snow,0,2013-01-28 06:55:00
1:15 AM,28.4,26.6,93,29.78,2.0,Calm,Calm,-,N/A,Snow,Light Snow,0,2013-01-28 07:15:00
1:35 AM,28.4,26.6,93,29.78,2.5,Calm,Calm,-,N/A,Snow,Light Snow,0,2013-01-28 07:35:00
1:55 AM,28.4,26.6,93,29.79,3.0,Calm,Calm,-,N/A,Snow,Light Snow,0,2013-01-28 07:55:00
2:15 AM,28.4,26.6,93,29.79,2.5,Calm,Calm,-,N/A,Snow,Light Snow,0,2013-01-28 08:15:00
2:35 AM,26.6,26.6,100,29.79,3.0,Calm,Calm,-,N/A,,Overcast,0,2013-01-28 08:35:00
2:55 AM,26.6,26.6,100,29.80,3.0,Calm,Calm,-,N/A,,Overcast,0,2013-01-28 08:55:00
3:15 AM,26.6,26.6,100,29.79,3.0,Calm,Calm,-,N/A,,Overcast,0,2013-01-28 09:15:00
3:35 AM,26.6,26.6,100,29.79,4.0,Calm,Calm,-,N/A,,Overcast,0,2013-01-28 09:35:00
3:55 AM,26.6,26.6,100,29.79,4.0,Calm,Calm,-,N/A,,Overcast,0,2013-01-28 09:55:00
4:15 AM,26.6,26.6,100,29.80,4.0,Calm,Calm,-,N/A,,Overcast,0,2013-01-28 10:15:00
4:35 AM,28.4,26.6,93,29.81,4.0,Calm,Calm,-,N/A,,Overcast,0,2013-01-28 10:35:00
4:55 AM,26.6,26.6,100,29.82,4.0,Calm,Calm,-,N/A,,Overcast,0,2013-01-28 10:55:00
5:15 AM,28.4,26.6,93,29.82,4.0,Calm,Calm,-,N/A,,Overcast,0,2013-01-28 11:15:00
5:35 AM,28.4,26.6,93,29.82,5.0,NNW,3.5,-,N/A,,Overcast,340,2013-01-28 11:35:00
5:55 AM,28.4,26.6,93,29.81,5.0,Calm,Calm,-,N/A,,Overcast,0,2013-01-28 11:55:00
6:15 AM,28.4,26.6,93,29.81,4.0,Calm,Calm,-,N/A,,Overcast,0,2013-01-28 12:15:00
6:35 AM,28.4,26.6,93,29.83,5.0,West,3.5,-,N/A,,Overcast,280,2013-01-28 12:35:00
6:55 AM,28.4,26.6,93,29.83,5.0,Calm,Calm,-,N/A,,Overcast,0,2013-01-28 12:55:00
7:15 AM,28.4,26.6,93,29.83,5.0,Calm,Calm,-,N/A,,Overcast,0,2013-01-28 13:15:00
7:35 AM,28.4,26.6,93,29.85,4.0,Calm,Calm,-,N/A,,Overcast,0,2013-01-28 13:35:00
7:55 AM,28.4,26.6,93,29.84,5.0,Calm,Calm,-,N/A,,Overcast,0,2013-01-28 13:55:00
8:15 AM,28.4,26.6,93,29.86,4.0,Calm,Calm,-,N/A,,Overcast,0,2013-01-28 14:15:00
8:35 AM,28.4,26.6,93,29.86,5.0,Calm,Calm,-,N/A,,Overcast,0,2013-01-28 14:35:00
9:15 AM,30.2,26.6,86,29.86,10.0,SSE,3.5,-,N/A,,Overcast,150,2013-01-28 15:15:00
9:35 AM,30.2,26.6,86,29.87,10.0,Calm,Calm,-,N/A,,Overcast,0,2013-01-28 15:35:00
9:55 AM,30.2,26.6,86,29.86,10.0,Calm,Calm,-,N/A,,Overcast,0,2013-01-28 15:55:00
10:15 AM,30.2,26.6,86,29.86,10.0,Calm,Calm,-,N/A,,Overcast,0,2013-01-28 16:15:00
10:35 AM,30.2,26.6,86,29.89,10.0,SSW,6.9,-,N/A,,Overcast,210,2013-01-28 16:35:00
10:55 AM,30.2,26.6,86,29.89,10.0,Calm,Calm,-,N/A,,Overcast,0,2013-01-28 16:55:00
11:15 AM,30.2,26.6,86,29.89,10.0,SSE,3.5,-,N/A,,Overcast,150,2013-01-28 17:15:00
11:35 AM,30.2,26.6,86,29.88,10.0,Calm,Calm,-,N/A,,Overcast,0,2013-01-28 17:35:00
11:55 AM,30.2,26.6,86,29.87,10.0,South,3.5,-,N/A,,Overcast,180,2013-01-28 17:55:00
12:35 PM,30.2,26.6,86,29.86,7.0,South,6.9,-,N/A,,Overcast,190,2013-01-28 18:35:00
12:55 PM,30.2,26.6,86,29.86,10.0,South,5.8,-,N/A,,Overcast,190,2013-01-28 18:55:00
1:15 PM,30.2,26.6,86,29.86,7.0,SSW,6.9,-,N/A,,Overcast,200,2013-01-28 19:15:00
1:35 PM,32.0,26.6,80,29.85,10.0,Calm,Calm,-,N/A,,Overcast,0,2013-01-28 19:35:00
1:55 PM,30.2,28.4,93,29.84,7.0,South,4.6,-,N/A,,Overcast,180,2013-01-28 19:55:00
2:15 PM,32.0,28.4,87,29.83,7.0,Calm,Calm,-,N/A,,Overcast,0,2013-01-28 20:15:00
2:35 PM,32.0,28.4,87,29.84,7.0,SSE,4.6,-,N/A,,Overcast,160,2013-01-28 20:35:00
2:55 PM,32.0,28.4,87,29.85,7.0,South,3.5,-,N/A,,Overcast,170,2013-01-28 20:55:00
3:15 PM,32.0,28.4,87,29.85,7.0,South,3.5,-,N/A,,Overcast,180,2013-01-28 21:15:00
3:35 PM,30.2,28.4,93,29.85,10.0,Calm,Calm,-,N/A,,Overcast,0,2013-01-28 21:35:00
3:55 PM,30.2,28.4,93,29.84,10.0,ESE,5.8,-,N/A,,Overcast,120,2013-01-28 21:55:00
4:15 PM,30.2,28.4,93,29.83,7.0,ESE,4.6,-,N/A,,Overcast,110,2013-01-28 22:15:00
4:35 PM,30.2,28.4,93,29.82,7.0,ESE,3.5,-,N/A,,Overcast,120,2013-01-28 22:35:00
4:55 PM,30.2,28.4,93,29.83,7.0,ESE,6.9,-,N/A,,Overcast,120,2013-01-28 22:55:00
5:15 PM,30.2,28.4,93,29.82,5.0,SE,9.2,-,N/A,,Overcast,130,2013-01-28 23:15:00
5:35 PM,30.2,28.4,93,29.82,5.0,SSE,8.1,-,N/A,,Overcast,150,2013-01-28 23:35:00
5:55 PM,30.2,28.4,93,29.84,5.0,South,8.1,-,N/A,,Overcast,170,2013-01-28 23:55:00
6:15 PM,30.2,28.4,93,29.85,4.0,South,12.7,-,N/A,,Overcast,170,2013-01-29 00:15:00
6:35 PM,30.2,28.4,93,29.84,3.0,SE,8.1,-,N/A,,Overcast,140,2013-01-29 00:35:00
6:55 PM,30.2,28.4,93,29.82,2.5,Calm,Calm,-,N/A,,Overcast,0,2013-01-29 00:55:00
7:15 PM,30.2,28.4,93,29.81,2.0,ESE,5.8,-,N/A,,Overcast,120,2013-01-29 01:15:00
7:35 PM,30.2,28.4,93,29.82,1.2,SSE,5.8,-,N/A,,Overcast,150,2013-01-29 01:35:00
7:55 PM,30.2,28.4,93,29.80,0.8,ESE,4.6,-,N/A,,Overcast,120,2013-01-29 01:55:00
8:15 PM,30.2,28.4,93,29.80,0.5,SE,5.8,-,N/A,Fog,Light Freezing Fog,140,2013-01-29 02:15:00
8:35 PM,30.2,30.2,100,29.80,0.5,SE,6.9,-,N/A,Fog,Light Freezing Fog,140,2013-01-29 02:35:00
8:55 PM,30.2,30.2,100,29.78,0.2,ESE,6.9,-,N/A,Fog,Light Freezing Fog,120,2013-01-29 02:55:00
9:15 PM,30.2,30.2,100,29.77,0.2,SE,9.2,-,N/A,Fog,Light Freezing Fog,140,2013-01-29 03:15:00
9:35 PM,30.2,30.2,100,29.76,0.5,SE,9.2,-,N/A,Fog,Light Freezing Fog,130,2013-01-29 03:35:00
9:55 PM,30.2,30.2,100,29.74,0.2,ESE,9.2,-,N/A,Fog,Light Freezing Fog,120,2013-01-29 03:55:00
10:15 PM,30.2,30.2,100,29.73,0.2,ESE,9.2,-,N/A,Fog,Light Freezing Fog,120,2013-01-29 04:15:00
10:35 PM,30.2,30.2,100,29.70,0.2,ESE,9.2,-,N/A,Fog,Light Freezing Fog,120,2013-01-29 04:35:00
10:55 PM,30.2,30.2,100,29.68,0.2,ESE,8.1,-,N/A,Fog,Light Freezing Fog,110,2013-01-29 04:55:00
11:15 PM,30.2,30.2,100,29.67,0.5,ESE,9.2,-,N/A,Fog,Light Freezing Fog,120,2013-01-29 05:15:00
11:35 PM,30.2,30.2,100,29.66,0.5,SE,9.2,-,N/A,Fog,Light Freezing Fog,130,2013-01-29 05:35:00
11:55 PM,30.2,30.2,100,29.64,0.5,ESE,9.2,17.3,N/A,Fog,Light Freezing Fog,120,2013-01-29 05:55:00